�N����,����,�g�[���i���ԁj���x,�g�[�����x,��g�[���i���ցj���x,����
 2003/05/01, 0:00,21.8,63,16.7,17.1
 2003/05/01, 0:15,21.5,62,16.5,17.1
 2003/05/01, 0:30,21.5,63,16.5,17.1
 2003/05/01, 0:45,21.6,62.5,16.4,17.1
 2003/05/01, 1:00,21.5,61,16.3,17.1
 2003/05/01, 1:15,21.1,61,16.3,17
 2003/05/01, 1:30,21,61,16.3,17
 2003/05/01, 1:45,21,60,16.1,17
 2003/05/01, 2:00,19.8,61,16.2,16.9
 2003/05/01, 2:15,18.8,60.5,16.1,16.9
 2003/05/01, 2:30,18.3,61,16.1,16.9
 2003/05/01, 2:45,18,61,16,16.9
 2003/05/01, 3:00,17.6,61,16,16.8
 2003/05/01, 3:15,17.4,62,16,16.8
 2003/05/01, 3:30,17.1,62,15.9,16.8
 2003/05/01, 3:45,17,62,15.9,16.8
 2003/05/01, 4:00,16.8,62,15.7,16.7
 2003/05/01, 4:15,16.6,62,15.6,16.7
 2003/05/01, 4:30,16.4,63,15.5,16.6
 2003/05/01, 4:45,16.2,63,15.4,16.6
 2003/05/01, 5:00,16.1,63,15.4,16.6
 2003/05/01, 5:15,16,63,15.3,16.5
 2003/05/01, 5:30,15.9,63,15.2,16.5
 2003/05/01, 5:45,15.8,63,15.2,16.5
 2003/05/01, 6:00,15.7,63,15.1,16.4
 2003/05/01, 6:15,15.6,63,15.1,16.4
 2003/05/01, 6:30,15.5,63,15.2,16.3
 2003/05/01, 6:45,15.5,63,15.2,16.3
 2003/05/01, 7:00,15.4,63,15.2,16.2
 2003/05/01, 7:15,15.4,63,15.3,16.2
 2003/05/01, 7:30,15.7,63,15.3,16.2
 2003/05/01, 7:45,19.8,56.5,15.4,15.7
 2003/05/01, 8:00,19.7,60,15.4,15.7
 2003/05/01, 8:15,20.2,58.5,15.6,15.7
 2003/05/01, 8:30,20.7,58,15.6,15.7
 2003/05/01, 8:45,20.7,57.5,15.7,15.7
 2003/05/01, 9:00,20.7,58,15.8,15.7
 2003/05/01, 9:15,21,57.5,15.9,15.7
 2003/05/01, 9:30,21.1,57,16,15.7
 2003/05/01, 9:45,21.4,56.5,16,15.7
 2003/05/01,10:00,21.7,56,16.2,15.7
 2003/05/01,10:15,22.2,55,16.4,15.7
 2003/05/01,10:30,22.4,55,16.5,15.7
 2003/05/01,10:45,22.6,54.5,16.7,15.7
 2003/05/01,11:00,22.3,54,16.9,15.7
 2003/05/01,11:15,21.6,54,17.1,15.7
 2003/05/01,11:30,21,48,17.6,15.8
 2003/05/01,11:45,20.5,46,17.8,15.8
 2003/05/01,12:00,20.4,49,18.1,15.8
 2003/05/01,12:15,20.5,51.5,18.3,15.9
 2003/05/01,12:30,20.3,49,18.6,15.9
 2003/05/01,12:45,20.3,40,18.9,15.9
 2003/05/01,13:00,20.3,36,19.2,16
 2003/05/01,13:15,20.3,31.5,19.6,16
 2003/05/01,13:30,20.4,34,20,16.1
 2003/05/01,13:45,20.6,42,20.5,16.1
 2003/05/01,14:00,20.7,46,21,16.2
 2003/05/01,14:15,20.7,48.5,21.4,16.2
 2003/05/01,14:30,20.8,49,21.8,16.3
 2003/05/01,14:45,21,50,22.1,16.4
 2003/05/01,15:00,21.2,49,22.5,16.5
 2003/05/01,15:15,21.4,51,22.9,16.5
 2003/05/01,15:30,21.5,50,23.5,16.6
 2003/05/01,15:45,21.6,52,23.6,16.7
 2003/05/01,16:00,21.8,52,23.9,16.8
 2003/05/01,16:15,22,51.5,24.4,16.9
 2003/05/01,16:30,22.1,52,24.6,17
 2003/05/01,16:45,22.1,52,25,17
 2003/05/01,17:00,22.3,52,24.9,17.2
 2003/05/01,17:15,22.1,52.5,24,17.2
 2003/05/01,17:30,21.9,53,23.4,17.4
 2003/05/01,17:45,21.8,53.5,22.9,17.5
 2003/05/01,18:00,21.6,54,22.5,17.6
 2003/05/01,18:15,21.5,54,22,17.7
 2003/05/01,18:30,21.3,54,21.8,17.8
 2003/05/01,18:45,21.2,54,21.4,18
 2003/05/01,19:00,21,54,21.1,18
 2003/05/01,19:15,21,52,20.9,18.1
 2003/05/01,19:30,20.8,53,20.7,18.2
 2003/05/01,19:45,20.7,53,20.5,18.3
 2003/05/01,20:00,20.6,52,20.4,18.4
 2003/05/01,20:15,20.5,52,20.2,18.5
 2003/05/01,20:30,20.4,53,20.1,18.5
 2003/05/01,20:45,20.4,55,20,18.6
 2003/05/01,21:00,20.6,57,19.9,18.7
 2003/05/01,21:15,20.7,58,19.8,18.8
 2003/05/01,21:30,20.8,57,19.6,18.8
 2003/05/01,21:45,20.8,58.5,19.5,18.9
 2003/05/01,22:00,21.1,62,19.3,18.9
 2003/05/01,22:15,21.5,66,19.2,19
 2003/05/01,22:30,21.3,62,19.1,19
 2003/05/01,22:45,21.2,60.5,19,19
 2003/05/01,23:00,21.1,60,18.9,19.1
 2003/05/01,23:15,21,59.5,18.8,19.1
 2003/05/01,23:30,20.8,59,18.7,19.1
 2003/05/01,23:45,21,58.5,18.6,19.1
 2003/05/02, 0:00,21.8,56,18.5,19.2
 2003/05/02, 0:15,21.9,56,18.4,19.2
 2003/05/02, 0:30,21.9,57,18.3,19.2
 2003/05/02, 0:45,22,57,18.2,19.2
 2003/05/02, 1:00,22.1,57,18.2,19.2
 2003/05/02, 1:15,21.7,57,18.1,19.2
 2003/05/02, 1:30,21,58,18,19.2
 2003/05/02, 1:45,20.6,59,18,19.2
 2003/05/02, 2:00,20.5,62,17.9,17.6
 2003/05/02, 2:15,20.5,66,17.8,17.6
 2003/05/02, 2:30,20.3,64,17.7,17.7
 2003/05/02, 2:45,19.8,63,17.7,17.6
 2003/05/02, 3:00,19.3,61,17.7,17.6
 2003/05/02, 3:15,19.1,60,17.6,17.6
 2003/05/02, 3:30,18.9,60,17.5,17.6
 2003/05/02, 3:45,18.7,59,17.5,17.6
 2003/05/02, 4:00,18.6,59,17.3,17.6
 2003/05/02, 4:15,20,58.5,17.2,17.6
 2003/05/02, 4:30,20.7,58,17.1,17.6
 2003/05/02, 4:45,20,58.5,17.1,17.6
 2003/05/02, 5:00,18.9,60,17.1,17.6
 2003/05/02, 5:15,18.5,60,17,17.6
 2003/05/02, 5:30,18.3,60,17,17.6
 2003/05/02, 5:45,18.1,60,17,17.6
 2003/05/02, 6:00,18,60,16.9,17.6
 2003/05/02, 6:15,17.9,60,17,17.6
 2003/05/02, 6:30,17.7,60,17,17.6
 2003/05/02, 6:45,17.6,60,17,17.6
 2003/05/02, 7:00,17.6,60,17.1,17.5
 2003/05/02, 7:15,17.8,60,17.1,17.5
 2003/05/02, 7:30,17.9,60,17.2,17.5
 2003/05/02, 7:45,20.2,57.5,17.3,16.9
 2003/05/02, 8:00,20.9,59,17.4,16.9
 2003/05/02, 8:15,21.5,57,17.5,16.9
 2003/05/02, 8:30,21.9,57,17.7,16.9
 2003/05/02, 8:45,22.1,56.5,17.8,16.9
 2003/05/02, 9:00,22.4,56,17.9,17
 2003/05/02, 9:15,22.7,56,18.1,17
 2003/05/02, 9:30,23.2,55,18.3,17
 2003/05/02, 9:45,23.5,54,18.5,17
 2003/05/02,10:00,23.8,54,18.7,17.1
 2003/05/02,10:15,24.1,53.5,18.9,17.1
 2003/05/02,10:30,24.3,53,19.1,17.1
 2003/05/02,10:45,23.9,53.5,19.5,17.1
 2003/05/02,11:00,23.7,54,19.7,17.2
 2003/05/02,11:15,23.4,52,20.1,17.2
 2003/05/02,11:30,23.1,49,20.8,17.3
 2003/05/02,11:45,23,49,21.1,17.3
 2003/05/02,12:00,23.4,46,21.5,17.4
 2003/05/02,12:15,23.5,45.5,22,17.4
 2003/05/02,12:30,23.3,51,22,17.5
 2003/05/02,12:45,23.7,48,22.7,17.5
 2003/05/02,13:00,24.1,45,23,17.6
 2003/05/02,13:15,24.3,45,23.4,17.7
 2003/05/02,13:30,24.2,46,23.7,17.8
 2003/05/02,13:45,24.6,44,24.2,17.9
 2003/05/02,14:00,24.9,42,24.7,18.3
 2003/05/02,14:15,25.1,42,25.5,18.4
 2003/05/02,14:30,25,44,25.7,18.5
 2003/05/02,14:45,25,43.5,26,18.5
 2003/05/02,15:00,25.1,43,26.3,18.6
 2003/05/02,15:15,25,43,26.6,18.7
 2003/05/02,15:30,24.9,47,26.6,18.8
 2003/05/02,15:45,25,47.5,27,18.9
 2003/05/02,16:00,25,47,27.3,19
 2003/05/02,16:15,24.8,47,27.5,19.1
 2003/05/02,16:30,24.8,48,27.6,19.2
 2003/05/02,16:45,24.8,48,27.7,19.3
 2003/05/02,17:00,24.7,49,27.3,19.4
 2003/05/02,17:15,24.9,50,26.7,19.6
 2003/05/02,17:30,24.7,51,26,19.7
 2003/05/02,17:45,24.4,50.5,25.4,19.8
 2003/05/02,18:00,24.1,52,24.9,19.9
 2003/05/02,18:15,24,52.5,24.5,20
 2003/05/02,18:30,24,53,24.3,20.1
 2003/05/02,18:45,23.9,54,24,20.2
 2003/05/02,19:00,23.7,54,23.7,20.3
 2003/05/02,19:15,23.7,55,23.6,20.4
 2003/05/02,19:30,23.7,56,23.4,20.5
 2003/05/02,19:45,23.7,57.5,23.2,20.6
 2003/05/02,20:00,23.6,56,23.1,20.7
 2003/05/02,20:15,23.5,57.5,23,20.8
 2003/05/02,20:30,23.4,58,22.9,20.8
 2003/05/02,20:45,23.9,56,23.1,20.9
 2003/05/02,21:00,23.7,57,22.9,21
 2003/05/02,21:15,23.6,58,22.8,21
 2003/05/02,21:30,23.6,58,22.7,21.1
 2003/05/02,21:45,23.5,58,22.6,21.2
 2003/05/02,22:00,23.3,58,22.5,21.3
 2003/05/02,22:15,23.3,58,22.4,21.3
 2003/05/02,22:30,23.2,58,22.3,21.4
 2003/05/02,22:45,23.1,58,22.1,21.4
 2003/05/02,23:00,23,58,22.1,21.5
 2003/05/02,23:15,23,59,21.9,21.5
 2003/05/02,23:30,23,63,21.8,21.6
 2003/05/02,23:45,22.9,62,21.8,21.6
 2003/05/03, 0:00,22.7,61,21.7,21.6
 2003/05/03, 0:15,22.5,61.5,21.6,21.7
 2003/05/03, 0:30,22.3,62,21.6,21.7
 2003/05/03, 0:45,22.2,62,21.5,21.7
 2003/05/03, 1:00,22.1,62,21.4,21.8
 2003/05/03, 1:15,22,62,21.4,21.8
 2003/05/03, 1:30,21.9,62,21.3,21.8
 2003/05/03, 1:45,21.8,62,21.1,21.8
 2003/05/03, 2:00,21.7,62,21,21.9
 2003/05/03, 2:15,21.5,62,21,21.9
 2003/05/03, 2:30,21.4,62,20.9,21.9
 2003/05/03, 2:45,21.4,62,20.7,21.9
 2003/05/03, 3:00,21.3,63,20.6,21.9
 2003/05/03, 3:15,21.1,62.5,20.5,21.9
 2003/05/03, 3:30,21,63,20.4,21.9
 2003/05/03, 3:45,21,63,20.4,21.9
 2003/05/03, 4:00,20.8,63,20.3,21.9
 2003/05/03, 4:15,20.8,63,20.1,21.9
 2003/05/03, 4:30,20.6,63,20.1,21.9
 2003/05/03, 4:45,20.5,63.5,20,21.9
 2003/05/03, 5:00,20.4,64,19.9,21.8
 2003/05/03, 5:15,20.4,64,19.8,21.8
 2003/05/03, 5:30,20.2,64,19.8,21.8
 2003/05/03, 5:45,20.1,64,19.7,20.1
 2003/05/03, 6:00,20.1,65,19.7,18.6
 2003/05/03, 6:15,20,64.5,19.6,18.6
 2003/05/03, 6:30,20,64,19.7,18.7
 2003/05/03, 6:45,20,64,19.8,18.7
 2003/05/03, 7:00,19.9,64,19.8,18.8
 2003/05/03, 7:15,20,64,19.8,18.8
 2003/05/03, 7:30,20.1,64,19.8,18.8
 2003/05/03, 7:45,20.1,64,20,18.9
 2003/05/03, 8:00,20.3,64,20.1,18.9
 2003/05/03, 8:15,20.5,63,20.1,18.9
 2003/05/03, 8:30,20.8,63,20.3,18.9
 2003/05/03, 8:45,21,61.5,20.4,19
 2003/05/03, 9:00,21.3,61,20.6,18.1
 2003/05/03, 9:15,21.6,61,20.8,18.1
 2003/05/03, 9:30,22,61,21.1,18.2
 2003/05/03, 9:45,22.4,61,21.4,18.2
 2003/05/03,10:00,22.6,61,21.5,18
 2003/05/03,10:15,22.9,60.5,21.6,18.1
 2003/05/03,10:30,23,59,21.8,18.2
 2003/05/03,10:45,23.1,59,22,18.2
 2003/05/03,11:00,23.3,58,22.2,18.3
 2003/05/03,11:15,23.5,58,22.5,18.4
 2003/05/03,11:30,23.5,58,22.7,18.4
 2003/05/03,11:45,23.5,58,22.9,18.5
 2003/05/03,12:00,23.6,58,23.1,18.6
 2003/05/03,12:15,23.6,58.5,23.3,18.6
 2003/05/03,12:30,23.7,58,23.5,18.7
 2003/05/03,12:45,23.8,59,23.7,18.8
 2003/05/03,13:00,23.9,59,24,18.9
 2003/05/03,13:15,24,59,24.4,19
 2003/05/03,13:30,24.1,59,24.7,19
 2003/05/03,13:45,24.2,59,25,19.1
 2003/05/03,14:00,24.3,59,25.3,19.2
 2003/05/03,14:15,24.5,59,25.7,19.4
 2003/05/03,14:30,24.7,58,26,19.4
 2003/05/03,14:45,24.9,58,26.3,19.5
 2003/05/03,15:00,25.1,58,26.7,19.6
 2003/05/03,15:15,25.2,57,27,19.8
 2003/05/03,15:30,25.4,58,27.3,19.8
 2003/05/03,15:45,25.5,59,27.7,20
 2003/05/03,16:00,25.7,58,28.2,20.1
 2003/05/03,16:15,25.9,57.5,28.5,20.2
 2003/05/03,16:30,26,56,28.8,20.3
 2003/05/03,16:45,26.1,56,29,20.5
 2003/05/03,17:00,26.2,56,28.6,20.6
 2003/05/03,17:15,26,56.5,27.8,20.8
 2003/05/03,17:30,25.9,57,27.4,20.9
 2003/05/03,17:45,25.8,58.5,27,21
 2003/05/03,18:00,25.6,59,26.5,21.2
 2003/05/03,18:15,25.5,59,26.1,21.4
 2003/05/03,18:30,25.4,60,25.8,21.4
 2003/05/03,18:45,25.2,60,25.5,21.5
 2003/05/03,19:00,25.2,60,25.3,21.7
 2003/05/03,19:15,25,60,25.1,21.9
 2003/05/03,19:30,25,60,25,21.9
 2003/05/03,19:45,25,60,24.8,22
 2003/05/03,20:00,24.7,61,24.6,22.2
 2003/05/03,20:15,24.7,61,24.5,22.3
 2003/05/03,20:30,24.6,61,24.3,22.4
 2003/05/03,20:45,24.5,60,24.1,22.5
 2003/05/03,21:00,24.3,60,24,22.6
 2003/05/03,21:15,24.2,60.5,23.9,22.6
 2003/05/03,21:30,24.1,60,23.7,22.8
 2003/05/03,21:45,24,60,23.6,22.9
 2003/05/03,22:00,23.9,60,23.5,22.9
 2003/05/03,22:15,23.8,60,23.4,23
 2003/05/03,22:30,23.7,60,23.2,23
 2003/05/03,22:45,23.5,59.5,23,23.1
 2003/05/03,23:00,23.4,60,23,23.2
 2003/05/03,23:15,23.3,60,22.9,23.2
 2003/05/03,23:30,23.2,59,22.7,23.3
 2003/05/03,23:45,23,59.5,22.6,23.3
 2003/05/04, 0:00,22.9,59,22.5,23.4
 2003/05/04, 0:15,22.8,59.5,22.4,23.4
 2003/05/04, 0:30,22.7,59,22.3,23.4
 2003/05/04, 0:45,22.6,59,22.1,23.5
 2003/05/04, 1:00,22.5,59,22.1,23.5
 2003/05/04, 1:15,22.4,59,22,23.5
 2003/05/04, 1:30,22.3,59,21.8,23.5
 2003/05/04, 1:45,22.1,59,21.8,23.6
 2003/05/04, 2:00,22,59,21.6,23.6
 2003/05/04, 2:15,22,59,21.5,23.6
 2003/05/04, 2:30,21.9,59,21.4,23.6
 2003/05/04, 2:45,21.6,59,21.4,23.6
 2003/05/04, 3:00,21.6,59,21.2,23.6
 2003/05/04, 3:15,21.5,59.5,21.1,23.6
 2003/05/04, 3:30,21.4,59,21,23.6
 2003/05/04, 3:45,21.3,59,21,23.6
 2003/05/04, 4:00,21.2,59,20.8,23.6
 2003/05/04, 4:15,21.1,59,20.8,23.6
 2003/05/04, 4:30,21,59,20.7,23.6
 2003/05/04, 4:45,21,59,20.5,23.6
 2003/05/04, 5:00,20.8,59,20.5,23.6
 2003/05/04, 5:15,20.8,59.5,20.4,23.5
 2003/05/04, 5:30,20.7,59,20.4,23.5
 2003/05/04, 5:45,20.5,60,20.3,23.5
 2003/05/04, 6:00,20.5,60,20.3,23.4
 2003/05/04, 6:15,20.5,60,20.3,23.4
 2003/05/04, 6:30,20.4,60,20.3,23.4
 2003/05/04, 6:45,20.3,60,20.3,23.4
 2003/05/04, 7:00,20.3,60,20.4,23.3
 2003/05/04, 7:15,20.3,60,20.5,23.3
 2003/05/04, 7:30,20.3,60,20.5,23.3
 2003/05/04, 7:45,20.3,60,20.6,23.2
 2003/05/04, 8:00,20.4,60,20.7,23.2
 2003/05/04, 8:15,20.5,59.5,20.8,23.1
 2003/05/04, 8:30,20.6,60,20.9,23.1
 2003/05/04, 8:45,20.7,59,21,23.1
 2003/05/04, 9:00,20.7,59,21.2,23.1
 2003/05/04, 9:15,20.9,59,21.3,23
 2003/05/04, 9:30,21,58,21.4,23
 2003/05/04, 9:45,21.1,58,21.5,23
 2003/05/04,10:00,21.3,58,21.8,23
 2003/05/04,10:15,21.5,57,21.9,23
 2003/05/04,10:30,21.7,57,22,23
 2003/05/04,10:45,22,56.5,22.2,22.9
 2003/05/04,11:00,22.2,56,22.5,22.9
 2003/05/04,11:15,22.5,55.5,22.7,22.9
 2003/05/04,11:30,22.7,56,22.9,22.9
 2003/05/04,11:45,22.8,55.5,23,22.9
 2003/05/04,12:00,22.9,56,23.1,22.9
 2003/05/04,12:15,23.1,56,23.3,23
 2003/05/04,12:30,23.2,56,23.6,23
 2003/05/04,12:45,23.5,56,23.8,23
 2003/05/04,13:00,23.5,56,24.1,23
 2003/05/04,13:15,23.6,56,24.4,23
 2003/05/04,13:30,23.9,56,24.8,23
 2003/05/04,13:45,24.1,56,25.2,23
 2003/05/04,14:00,24.3,56,25.6,23.1
 2003/05/04,14:15,24.6,55.5,26,23.1
 2003/05/04,14:30,24.9,55,26.4,23.2
 2003/05/04,14:45,25.1,55,26.8,23.2
 2003/05/04,15:00,25.4,54,27.2,23.3
 2003/05/04,15:15,25.6,54,27.6,23.3
 2003/05/04,15:30,25.8,55,28.1,23.4
 2003/05/04,15:45,26,55,28.5,23.4
 2003/05/04,16:00,26.2,56,28.7,23.5
 2003/05/04,16:15,26.4,56,29.2,23.5
 2003/05/04,16:30,26.6,56,29.8,23.6
 2003/05/04,16:45,26.7,55.5,29.5,23.7
 2003/05/04,17:00,26.6,56,29.1,23.8
 2003/05/04,17:15,26.6,56.5,28.7,23.9
 2003/05/04,17:30,26.6,57,28.5,24
 2003/05/04,17:45,26.5,58,28,24
 2003/05/04,18:00,26.4,59,27.7,24.1
 2003/05/04,18:15,26.3,59,27.2,24.2
 2003/05/04,18:30,26.2,59,26.9,24.3
 2003/05/04,18:45,26.1,60,26.6,24.4
 2003/05/04,19:00,26,60,26.4,24.5
 2003/05/04,19:15,26,60,26.2,24.5
 2003/05/04,19:30,25.8,61,26.1,24.6
 2003/05/04,19:45,25.8,60.5,26,24.7
 2003/05/04,20:00,25.7,60,25.7,24.8
 2003/05/04,20:15,25.6,60,25.6,24.9
 2003/05/04,20:30,25.5,61,25.5,24.9
 2003/05/04,20:45,25.4,60,25.4,25
 2003/05/04,21:00,25.3,60,25.2,25.1
 2003/05/04,21:15,25.2,60,25,25.1
 2003/05/04,21:30,25.1,60,24.9,25.2
 2003/05/04,21:45,25,60,24.8,25.3
 2003/05/04,22:00,24.9,60,24.7,25.3
 2003/05/04,22:15,24.9,60,24.5,25.4
 2003/05/04,22:30,24.7,59,24.4,25.4
 2003/05/04,22:45,24.6,59,24.3,25.5
 2003/05/04,23:00,24.5,59,24.2,25.5
 2003/05/04,23:15,24.5,59,24,25.6
 2003/05/04,23:30,24.3,59,24,25.6
 2003/05/04,23:45,24.2,58.5,23.9,25.6
 2003/05/05, 0:00,24.1,58,23.7,25.7
 2003/05/05, 0:15,24,58,23.6,25.7
 2003/05/05, 0:30,23.9,58,23.5,25.8
 2003/05/05, 0:45,23.8,57.5,23.4,25.8
 2003/05/05, 1:00,23.7,57,23.2,25.8
 2003/05/05, 1:15,23.5,57.5,23.1,25.8
 2003/05/05, 1:30,23.4,56,23,25.8
 2003/05/05, 1:45,23.2,57,22.9,25.8
 2003/05/05, 2:00,23.2,57,22.7,25.8
 2003/05/05, 2:15,23,57,22.6,25.8
 2003/05/05, 2:30,22.9,57,22.5,25.8
 2003/05/05, 2:45,22.8,56.5,22.4,25.8
 2003/05/05, 3:00,22.6,56,22.2,25.8
 2003/05/05, 3:15,22.5,56.5,22.1,25.8
 2003/05/05, 3:30,22.5,56,21.9,25.8
 2003/05/05, 3:45,22.2,55.5,21.9,25.8
 2003/05/05, 4:00,22.1,55,21.8,25.7
 2003/05/05, 4:15,22,56,21.6,25.7
 2003/05/05, 4:30,21.9,55,21.4,25.6
 2003/05/05, 4:45,21.8,55,21.4,25.6
 2003/05/05, 5:00,21.7,55,21.2,25.6
 2003/05/05, 5:15,21.5,55,21.1,25.5
 2003/05/05, 5:30,21.4,55,21,25.5
 2003/05/05, 5:45,21.3,55,21,25.4
 2003/05/05, 6:00,21.2,55,20.9,25.4
 2003/05/05, 6:15,21,55,20.9,25.3
 2003/05/05, 6:30,21,56,20.8,25.2
 2003/05/05, 6:45,21,56,20.9,25.2
 2003/05/05, 7:00,20.9,56,20.8,25.1
 2003/05/05, 7:15,20.9,56.5,20.9,25
 2003/05/05, 7:30,21,56,20.9,25
 2003/05/05, 7:45,21,56,21,25
 2003/05/05, 8:00,21.2,55,21,24.9
 2003/05/05, 8:15,21.5,55,21,24.9
 2003/05/05, 8:30,21.7,54,21.2,24.8
 2003/05/05, 8:45,21.9,54,21.3,24.8
 2003/05/05, 9:00,22.1,54,21.4,24.7
 2003/05/05, 9:15,22.4,53,21.5,24.7
 2003/05/05, 9:30,22.6,52,21.7,24.7
 2003/05/05, 9:45,22.9,52,21.9,24.6
 2003/05/05,10:00,23.2,51,22.1,24.6
 2003/05/05,10:15,23.4,50.5,22.2,24.6
 2003/05/05,10:30,23.5,51,22.5,24.5
 2003/05/05,10:45,23.8,50,22.8,24.5
 2003/05/05,11:00,23.9,50,22.9,24.5
 2003/05/05,11:15,24,50.5,23.2,24.5
 2003/05/05,11:30,24.2,49,23.5,24.5
 2003/05/05,11:45,24.2,50.5,23.6,24.5
 2003/05/05,12:00,24.2,51,23.9,24.5
 2003/05/05,12:15,24.5,51,24.1,24.5
 2003/05/05,12:30,24.6,51,24.4,24.5
 2003/05/05,12:45,24.7,51,24.7,24.5
 2003/05/05,13:00,24.8,51,25,24.5
 2003/05/05,13:15,25,52,25.4,24.5
 2003/05/05,13:30,25.2,53,25.9,24.6
 2003/05/05,13:45,25.4,52.5,26.4,24.6
 2003/05/05,14:00,25.7,51,26.8,24.6
 2003/05/05,14:15,25.9,51.5,27.1,24.6
 2003/05/05,14:30,26.1,52,27.6,24.7
 2003/05/05,14:45,26.4,51.5,28.1,24.7
 2003/05/05,15:00,26.7,51,28.5,24.7
 2003/05/05,15:15,27,51,28.9,24.8
 2003/05/05,15:30,27.2,51,29.3,24.8
 2003/05/05,15:45,27.3,52,29.6,24.9
 2003/05/05,16:00,27.4,51,29.9,25
 2003/05/05,16:15,27.5,50,30.1,25
 2003/05/05,16:30,27.6,50,30.4,25.1
 2003/05/05,16:45,27.6,48.5,30.2,25.2
 2003/05/05,17:00,27.5,49,29.9,25.3
 2003/05/05,17:15,27.4,50.5,29.4,25.4
 2003/05/05,17:30,27.2,52,28.8,25.5
 2003/05/05,17:45,27,52.5,28.2,25.6
 2003/05/05,18:00,26.9,53,27.8,25.7
 2003/05/05,18:15,26.8,54,27.5,25.8
 2003/05/05,18:30,26.6,54,27.1,25.9
 2003/05/05,18:45,26.5,54.5,26.8,26
 2003/05/05,19:00,26.3,55,26.5,26.1
 2003/05/05,19:15,26.3,54,26.4,26.1
 2003/05/05,19:30,26.2,55,26.2,26.2
 2003/05/05,19:45,26,55,26,26.3
 2003/05/05,20:00,26.1,55,25.9,26.4
 2003/05/05,20:15,26,55,25.8,26.4
 2003/05/05,20:30,25.9,55,25.7,26.5
 2003/05/05,20:45,25.8,55,25.5,26.5
 2003/05/05,21:00,25.7,56,25.4,26.6
 2003/05/05,21:15,25.6,56,25.3,26.7
 2003/05/05,21:30,25.5,57,25.2,21.2
 2003/05/05,21:45,25.5,56.5,25.1,21.5
 2003/05/05,22:00,25.5,58,25,21.6
 2003/05/05,22:15,25.5,57.5,25,21.8
 2003/05/05,22:30,25.5,58,24.9,21.9
 2003/05/05,22:45,25.5,58,24.8,22
 2003/05/05,23:00,25.4,58,24.8,22.1
 2003/05/05,23:15,25.4,58,24.7,22.1
 2003/05/05,23:30,25.2,58,24.7,22.3
 2003/05/05,23:45,25.1,58.5,24.6,22.4
 2003/05/06, 0:00,25.1,59,24.5,22.4
 2003/05/06, 0:15,24.9,59,24.4,22.5
 2003/05/06, 0:30,24.8,59,24.2,22.6
 2003/05/06, 0:45,24.7,59,24.2,22.6
 2003/05/06, 1:00,24.6,59,24.1,22.7
 2003/05/06, 1:15,24.5,58,24,22.8
 2003/05/06, 1:30,24.4,58,23.9,22.8
 2003/05/06, 1:45,24.3,58,23.8,22.8
 2003/05/06, 2:00,24.2,58,23.7,22.9
 2003/05/06, 2:15,24,58,23.6,22.9
 2003/05/06, 2:30,24,58,23.5,22.9
 2003/05/06, 2:45,24,58,23.4,23
 2003/05/06, 3:00,23.8,58,23.3,23
 2003/05/06, 3:15,23.8,60,23.2,23
 2003/05/06, 3:30,23.7,60,23.1,23.1
 2003/05/06, 3:45,23.5,60,23,23.1
 2003/05/06, 4:00,23.4,60,22.9,23.1
 2003/05/06, 4:15,23.4,60,22.8,23.1
 2003/05/06, 4:30,23.2,60,22.7,23.1
 2003/05/06, 4:45,23,60.5,22.6,23.2
 2003/05/06, 5:00,23,60,22.5,23.2
 2003/05/06, 5:15,22.9,60,22.5,23.2
 2003/05/06, 5:30,22.8,61,22.4,19.5
 2003/05/06, 5:45,22.7,60.5,22.4,19.6
 2003/05/06, 6:00,22.7,60,22.4,19.7
 2003/05/06, 6:15,22.5,61,22.4,19.8
 2003/05/06, 6:30,22.5,61,22.4,19.8
 2003/05/06, 6:45,22.5,61,22.5,19.9
 2003/05/06, 7:00,22.5,61,22.5,19.9
 2003/05/06, 7:15,22.5,61,22.6,20
 2003/05/06, 7:30,22.7,61,22.7,20
 2003/05/06, 7:45,23,61,22.8,19.7
 2003/05/06, 8:00,23.2,61,22.9,19.8
 2003/05/06, 8:15,23.5,60.5,23.1,19.8
 2003/05/06, 8:30,24,59,23.3,19.9
 2003/05/06, 8:45,24.1,58,23.4,20
 2003/05/06, 9:00,24.3,58,23.6,20
 2003/05/06, 9:15,24.5,57,23.7,20
 2003/05/06, 9:30,24.7,57,24,20.1
 2003/05/06, 9:45,24.9,56,24,20.2
 2003/05/06,10:00,25.1,55,24.2,20.2
 2003/05/06,10:15,25.4,55,24.3,20.3
 2003/05/06,10:30,25.8,54,24.6,20.4
 2003/05/06,10:45,26,54,25,20.5
 2003/05/06,11:00,26,54,25.3,20.5
 2003/05/06,11:15,26,53.5,25.5,20.6
 2003/05/06,11:30,26,54,25.5,20.7
 2003/05/06,11:45,26,54.5,25.8,20.8
 2003/05/06,12:00,26,54,26,20.8
 2003/05/06,12:15,26,54.5,26,21
 2003/05/06,12:30,26,56,26.1,21
 2003/05/06,12:45,26,58,26,21.1
 2003/05/06,13:00,26,56,25.9,21.2
 2003/05/06,13:15,25.8,56.5,25.8,21.3
 2003/05/06,13:30,25.8,58,25.8,21.4
 2003/05/06,13:45,25.8,59,25.8,21.5
 2003/05/06,14:00,25.8,60,25.9,21.6
 2003/05/06,14:15,25.9,60,26.1,21.6
 2003/05/06,14:30,26,59,26.3,21.8
 2003/05/06,14:45,26,60,26.4,21.9
 2003/05/06,15:00,26,60,26.4,22
 2003/05/06,15:15,26,59.5,26.3,22
 2003/05/06,15:30,26,62,26.2,22.2
 2003/05/06,15:45,26,60.5,26.2,22.2
 2003/05/06,16:00,25.9,60,26.1,22.4
 2003/05/06,16:15,25.9,59.5,26,22.5
 2003/05/06,16:30,25.8,59,25.9,22.5
 2003/05/06,16:45,25.7,60,25.9,22.6
 2003/05/06,17:00,25.7,60,25.8,22.7
 2003/05/06,17:15,25.6,59,25.6,22.8
 2003/05/06,17:30,25.5,60,25.5,22.9
 2003/05/06,17:45,25.5,60,25.4,23
 2003/05/06,18:00,25.4,60,25.3,23
 2003/05/06,18:15,25.3,60,25.2,23.1
 2003/05/06,18:30,25.3,60,25.1,23.2
 2003/05/06,18:45,25.2,60,25,23.2
 2003/05/06,19:00,25.2,60,25,23.3
 2003/05/06,19:15,25.5,62,25,23.4
 2003/05/06,19:30,25.7,63,25,23.4
 2003/05/06,19:45,25.6,60.5,25,23.5
 2003/05/06,20:00,25.6,60,24.9,23.5
 2003/05/06,20:15,25.5,60,24.9,23.6
 2003/05/06,20:30,25.6,62,24.8,23.7
 2003/05/06,20:45,25.8,62.5,24.8,23.7
 2003/05/06,21:00,25.8,61,24.8,23.7
 2003/05/06,21:15,25.8,61,24.7,23.8
 2003/05/06,21:30,25.7,62,24.7,23.8
 2003/05/06,21:45,25.7,61.5,24.6,23.9
 2003/05/06,22:00,25.5,62,24.6,23.9
 2003/05/06,22:15,25.5,62,24.5,24
 2003/05/06,22:30,25.4,62,24.5,24
 2003/05/06,22:45,25.4,62,24.5,24
 2003/05/06,23:00,25.3,63,24.4,24.1
 2003/05/06,23:15,25.2,62,24.4,22.2
 2003/05/06,23:30,25.2,63,24.3,20.5
 2003/05/06,23:45,25.1,63.5,24.2,20.6
 2003/05/07, 0:00,25.1,63,24.2,20.7
 2003/05/07, 0:15,25,63.5,24.1,20.8
 2003/05/07, 0:30,24.8,64,24,20.9
 2003/05/07, 0:45,24.6,64,24,21
 2003/05/07, 1:00,24.6,65,23.9,21
 2003/05/07, 1:15,24.5,65,23.9,21.1
 2003/05/07, 1:30,24.3,65,23.8,21.2
 2003/05/07, 1:45,24.4,66,23.7,21.2
 2003/05/07, 2:00,24.4,68,23.6,21.3
 2003/05/07, 2:15,24.6,68,23.6,21.4
 2003/05/07, 2:30,24.5,66,23.6,21.4
 2003/05/07, 2:45,24.4,66,23.6,21.4
 2003/05/07, 3:00,24.2,65,23.5,21.5
 2003/05/07, 3:15,24,66,23.5,21.5
 2003/05/07, 3:30,24,66,23.4,21.6
 2003/05/07, 3:45,23.9,65,23.3,21.6
 2003/05/07, 4:00,23.8,66,23.3,21.7
 2003/05/07, 4:15,23.7,66,23.2,21.7
 2003/05/07, 4:30,23.7,66,23.1,21.7
 2003/05/07, 4:45,23.6,65.5,23.1,21.8
 2003/05/07, 5:00,23.5,66,23.1,21.8
 2003/05/07, 5:15,23.5,66,23,21.9
 2003/05/07, 5:30,23.4,66,23,21.9
 2003/05/07, 5:45,23.3,66,22.9,21.9
 2003/05/07, 6:00,23.3,66,22.9,22
 2003/05/07, 6:15,23.2,66,22.9,22
 2003/05/07, 6:30,23.2,66,22.9,19.8
 2003/05/07, 6:45,23.1,66,22.9,19.9
 2003/05/07, 7:00,23.1,66,22.9,19.9
 2003/05/07, 7:15,23,66,22.9,20
 2003/05/07, 7:30,23,66,23,20
 2003/05/07, 7:45,23.1,66,23.1,20.1
 2003/05/07, 8:00,23.1,67,23.3,20.2
 2003/05/07, 8:15,23.5,66.5,23.5,20.2
 2003/05/07, 8:30,23.6,66,23.6,20.3
 2003/05/07, 8:45,23.7,66,23.8,20.4
 2003/05/07, 9:00,23.8,65,23.7,20.4
 2003/05/07, 9:15,24,64.5,24,20.5
 2003/05/07, 9:30,24.3,64,24.1,20.5
 2003/05/07, 9:45,24.5,63,24.4,20.6
 2003/05/07,10:00,24.6,62,24.5,20.6
 2003/05/07,10:15,24.9,62,24.6,20.7
 2003/05/07,10:30,25.1,62,24.8,20.8
 2003/05/07,10:45,25.2,61,25.1,20.8
 2003/05/07,11:00,25.3,61,25.3,20.9
 2003/05/07,11:15,25.4,61,25.5,21
 2003/05/07,11:30,25.5,61,25.6,21
 2003/05/07,11:45,25.5,61.5,25.6,21.1
 2003/05/07,12:00,25.5,62,25.9,21.1
 2003/05/07,12:15,25.6,61.5,26,21.2
 2003/05/07,12:30,25.7,62,26.1,21.3
 2003/05/07,12:45,25.7,62.5,26,21.4
 2003/05/07,13:00,25.8,63,26.1,21.5
 2003/05/07,13:15,25.8,63.5,26,21.5
 2003/05/07,13:30,25.9,64,26,21.6
 2003/05/07,13:45,26,64,25.9,21.7
 2003/05/07,14:00,26,64,25.8,21.8
 2003/05/07,14:15,26,64,25.8,21.9
 2003/05/07,14:30,25.8,65,25.7,22
 2003/05/07,14:45,25.8,66,25.7,22
 2003/05/07,15:00,25.8,66,25.7,22.2
 2003/05/07,15:15,25.8,66.5,25.5,22.2
 2003/05/07,15:30,25.7,67,25.5,22.3
 2003/05/07,15:45,25.6,67,25.5,22.4
 2003/05/07,16:00,25.7,67,25.5,22.5
 2003/05/07,16:15,25.6,67,25.5,22.5
 2003/05/07,16:30,25.6,67,25.5,22.6
 2003/05/07,16:45,25.6,67.5,25.5,22.7
 2003/05/07,17:00,25.6,68,25.5,22.8
 2003/05/07,17:15,25.6,68,25.5,22.9
 2003/05/07,17:30,25.6,68,25.5,22.9
 2003/05/07,17:45,25.5,68,25.5,23
 2003/05/07,18:00,25.5,68,25.4,23.1
 2003/05/07,18:15,25.5,68,25.4,23.1
 2003/05/07,18:30,25.5,68,25.3,23.2
 2003/05/07,18:45,25.5,69,25.3,23.2
 2003/05/07,19:00,25.5,69,25.2,23.3
 2003/05/07,19:15,25.4,69,25.2,23.4
 2003/05/07,19:30,25.5,69,25.2,23.4
 2003/05/07,19:45,25.7,70,25.1,23.5